Bookmark and Share
Track history (hours):
 

Sheng Jia 1

Last reported at 2014-Apr-23 18:17 UTC. Time now 2014-Apr-24 14:11 UTC.
Position N 33°35' E 129°36'.

Length 72 m; draft 4.2 m.

Type: Cargo ship. MMSI: 515744000.

NotesDate/timePositionNaut miles runAvg speedWind from/ knotsBaromVisibWave heightAir tempDewpointWater temp
2014-Apr-23 18:17N 33°35' E 129°36'7 9.7
2014-Apr-23 17:33N 33°38' E 129°45'10 9.9
2014-Apr-23 16:32N 33°42' E 129°56'10 9.7
2014-Apr-23 15:33N 33°46' E 130°06'11 9.6
2014-Apr-23 14:25N 33°53' E 130°16'21 9.0
2014-Apr-23 12:05N 33°58' E 130°41'  
2014-Apr-20 22:15N 34°55' E 139°26'6 8.9
2014-Apr-20 21:32N 34°60' E 139°32'8 8.5
2014-Apr-20 20:33N 35°05' E 139°39'9 9.0
2014-Apr-20 19:33N 35°12' E 139°46'9 8.6
2014-Apr-20 18:33N 35°20' E 139°43'8 8.3
2014-Apr-20 17:33N 35°27' E 139°48'9 9.0
2014-Apr-20 16:33N 35°32' E 139°58'7 6.7
2014-Apr-20 15:33N 35°32' E 140°06'0 0.0
2014-Apr-20 14:33N 35°32' E 140°06'0 0.0
2014-Apr-20 13:33N 35°32' E 140°06'0 0.0
2014-Apr-20 12:33N 35°32' E 140°06'0 0.0
2014-Apr-20 11:22N 35°32' E 140°06'0 0.0
2014-Apr-20 10:31N 35°32' E 140°06'0 0.0
2014-Apr-20 09:16N 35°32' E 140°06'0 0.0
2014-Apr-20 08:28N 35°32' E 140°06'0 0.0
2014-Apr-20 07:31N 35°32' E 140°06'0 0.0
2014-Apr-20 06:28N 35°32' E 140°06'0 0.0
2014-Apr-20 05:13N 35°32' E 140°06'0 0.0
2014-Apr-20 04:16N 35°32' E 140°06'0 0.0
2014-Apr-20 03:31N 35°32' E 140°06'0 0.0
2014-Apr-20 02:31N 35°32' E 140°06'0 0.0
2014-Apr-20 01:28N 35°32' E 140°06'0 0.0
2014-Apr-20 00:31N 35°32' E 140°06'0 0.0
2014-Apr-19 23:28N 35°32' E 140°06'0 0.0
2014-Apr-19 22:19N 35°32' E 140°06'0 0.0
2014-Apr-19 21:33N 35°32' E 140°06'3 3.5
2014-Apr-19 20:33N 35°33' E 140°02'0 0.1
2014-Apr-19 19:28N 35°33' E 140°02'0 0.0
2014-Apr-19 18:31N 35°33' E 140°02'0 0.0
2014-Apr-19 17:31N 35°33' E 140°02'0 0.0
2014-Apr-19 16:22N 35°33' E 140°02'0 0.0
2014-Apr-19 15:31N 35°33' E 140°02'0 0.0
2014-Apr-19 14:19N 35°33' E 140°02'0 0.0
2014-Apr-19 13:25N 35°33' E 140°02'0 0.0
2014-Apr-19 12:28N 35°33' E 140°02'0 0.0
2014-Apr-19 11:31N 35°33' E 140°02'0 0.0
2014-Apr-19 10:28N 35°33' E 140°02'0 0.1
2014-Apr-19 09:31N 35°33' E 140°02'7 7.5
2014-Apr-19 08:33N 35°30' E 139°54'9 9.2
2014-Apr-19 07:34N 35°23' E 139°46'9 8.9
2014-Apr-19 06:33N 35°14' E 139°47'8 8.4
2014-Apr-19 05:34N 35°07' E 139°43'9 8.9
2014-Apr-19 04:33N 35°00' E 139°35'10 9.3
2014-Apr-19 03:30N 34°54' E 139°26'  

Dump ship's entire track history

sailing weather and tide predictions

Sheng Jia 1 — XUGG7 — position and weather